User: anonymous   Login
Location: Unspecified
(0.0000°N, 0.0000°E)
Time: 23:02:41
(UTC+00:00)
Language:

GLOBAL-2 - Orbit

View from above orbital plane
View from above orbital plane
View from above satellite
View from above satellite

Ground track
Ground track

The orbit data is extracted from the following two-line orbital elements,

1 43812U 18099BG  19048.83528279 -.00000120  00000-0 -56170-5 0  9990
2 43812  97.7560 122.2366 0014064  19.7242 340.4520 14.95346846 10959
Epoch (UTC): 17 February 2019 20:02:48
Eccentricity: 0.0014064
inclination: 97.7560°
perigee height: 571 km
apogee height: 591 km
right ascension of ascending node: 122.2366°
argument of perigee: 19.7242°
revolutions per day: 14.95346846
mean anomaly at epoch: 340.4520°
orbit number at epoch: 1095

The dashed part of the orbit path shows where the satellite is in the earth's shadow,  

DLR